RAPIS-1 (43932 NORAD) Tracking and Keplerian Element Data

This shows tracking and keplerian element data for the satellite.

Feedback or suggestion? Click here.




ElementValue
Catalog43932
NameRAPIS-1
Epoch Orbit449
Epoch Day47.65180696
Epoch Year2019
RAAN109.0108
Inclination97.3005
Eccentricity0.001107
Argument of Perigee149.8856
Mean Anonmoly1.175
Mean Motion15.20529727
Decay Rate-6.5E-07
L11 43932U 19003A 19047.65180696 -.00000065 00000-0 82367-7 0 9991
L22 43932 97.3005 109.0108 0011070 149.8856 1.1750 15.20529727 4497

Live tracking and technical data element details for RAPIS-1 (NORAD 43932). RAPIS-1 can be tracked NOW for your location showing map with azimuth and elevation plus other details from your city location.

Track the satellite on the map from your city or location and see movement details for azimuth, elevation, latitude, longitude, range, height, and movement on the map or in text.







IsCatalogInMostPopularTable: catalog: 43932, numindb: 9
Update: records affected: 1



GetName: 43932 RAPIS-1

Hit Count: updated at: Thu, 21 Feb 2019 11:39:27 GMT